カタログに戻る

SL-16 DEB

運用中LEO
NORAD 26073·DEBRIS·🇷🇺 Russia

打ち上げ Feb 3, 2000 から Baikonur Cosmodrome

Loading…

次のパス (今後24時間)

TLE

最新Source: Space-Track

元期: Sep 14, 2026, 10:11 UTC

1 26073U 00006C   26257.42460365  .00000075  00000-0  10779-3 0  9995
2 26073  71.0772  53.1952 0194027 185.7348 204.6612 13.74731572334717

AllMySatでSL-16 DEBをリアルタイム追跡

Download on the App Store